Location: ??????????
(54.4061°N, 22.6114°E)
Time: 19:52:40
(UTC+00:00)

STARLINK-55 - Pass Details

Date: 23 October 2019
Orbit: 548 x 551 km, 53.0° (Epoch: 20 November)

Event Time Altitude Azimuth Distance (km) Brightness Sun altitude
Rises 17:29:22 0° 279° (W) 2,721 8.8 -20.3°
Reaches altitude 10° 17:31:37 10° 275° (W) 1,826 7.5 -20.6°
Maximum altitude 17:35:41 55° 198° (SSW) 665 4.0 -21.2°
Enters shadow 17:36:15 50° 165° (SSE) 706 3.9 -21.2°
